Home > Weather > Chilliwack > Past weeks

Flag for Canada Past Weather in Chilliwack, British Columbia, Canada — Yesterday and Last 2 Weeks

Now
58 °F

Cool.


Feels Like: 57 °F
Forecast: 55 / 81 °F
Wind: 6 mph from North

Location: Agassiz

Current Time: Jun 26, 2016 at 3:06:17 AM

Latest Report: Jun 26, 2016 at 2:00 AM


Visibility: N/A

Pressure: 30.23 "Hg

Humidity: 82%

Dew Point: 52 °F

Location of ChilliwackLocation

Past Weather in Chilliwack — Graph

°F

Chilliwack Temperature Yesterday

Maximum temperature yesterday: 71 °F (at 6:00 PM)
Minimum temperature yesterday: 55 °F (at 6:00 AM)
Average temperature yesterday: 62 °F

High & Low Weather Summary for the Past Weeks

 TemperatureHumidityPressure
High75 °F (Jun 17, 7:00 PM)100% (Jun 15, 4:00 AM)30.42 "Hg (Jun 15, 4:00 AM)
Low45 °F (Jun 16, 6:00 AM)28% (Jun 17, 7:00 PM)29.87 "Hg (Jun 14, 3:00 AM)
Average58 °F76%30.11 "Hg
* Reported Jun 11 2:00 AM — Jun 26 2:00 AM, Chilliwack, Weather by CustomWeather, © 2016

Note: Actual official high and low records may vary slightly from our data, if they occured in-between our weather recording intervals... More about our weather records

Advertising

Chilliwack Weather History for the Previous 24 Hours

Scroll right to see more
 ConditionsComfort  
Time TempWeatherWind HumidityBarometerVisibility
2:00 AM
Sun, Jun 26
58 °FCool.6 mph82%30.23 "HgN/A
1:00 AM55 °FCool.2 mph94%30.24 "HgN/A
12:00 AM55 °FCool.1 mph92%30.23 "HgN/A
11:00 PM
Sat, Jun 25
58 °FCool.1 mph90%30.23 "HgN/A
10:00 PM59 °FCool.1 mph85%30.22 "HgN/A
9:00 PM63 °FMild.2 mph77%30.20 "HgN/A
8:00 PM70 °FMild.2 mph56%30.19 "HgN/A
7:00 PM71 °FMild.3 mph55%30.19 "HgN/A
6:00 PM71 °FMild.3 mph54%30.21 "HgN/A
5:00 PM71 °FMild.5 mph53%30.22 "HgN/A
4:00 PM70 °FMild.3 mph59%30.23 "HgN/A
3:00 PM68 °FMild.6 mph63%30.25 "HgN/A
2:00 PM67 °FMild.6 mph64%30.26 "HgN/A
1:00 PM66 °FMild.7 mph67%30.27 "HgN/A
12:00 PM64 °FMild.3 mph68%30.27 "HgN/A
11:00 AM62 °FCool.1 mph75%30.27 "HgN/A
10:00 AM60 °FCool.2 mph77%30.28 "HgN/A
9:00 AM59 °FCool.1 mph82%30.28 "HgN/A
8:00 AM57 °FCool.No wind87%30.28 "HgN/A
7:00 AM56 °FCool.1 mph88%30.28 "HgN/A
6:00 AM55 °FCool.1 mph93%30.28 "HgN/A
5:00 AM56 °FCool.1 mph91%30.27 "HgN/A
4:00 AM56 °FCool.2 mph92%30.27 "HgN/A
3:00 AM56 °FCool.1 mph91%30.27 "HgN/A
Weather by CustomWeather, © 2016

See weather overviewHow to use our weather pages